Wetbulb
67.18 68.60 71.08 70.37 70.50 72.32 72.40 72.77 73.27 74.01 74.30 75.02 75.92 75.97 76.31 77.06 77.37 76.06 75.92 76.14 74.66 75.00 75.44 76.02 77.59 78.80 77.91 77.47 77.75 78.13 78.04 76.15 75.67
66.61 67.67 69.46 70.52 71.62 72.34 72.48 73.04 73.76 74.30 74.76 75.24 75.77 75.79 76.23 76.70 77.11 76.76 75.86 76.44 76.71 75.69 76.87 76.44 77.79 78.38 76.93 77.47 77.96 78.52 78.61 76.06 77.10
63.98 68.69 68.35 69.96 72.27 72.90 73.00 73.53 74.06 74.76 75.25 75.22 75.78 75.91 75.94 76.14 76.51 77.09 76.93 76.64 76.32 76.77 76.12 77.49 77.55 78.27 78.26 77.31 78.21 78.47 78.42 77.04 77.70
61.72 63.72 68.37 70.03 72.21 71.99 73.37 73.68 73.98 74.04 74.65 75.17 75.55 75.75 75.77 75.94 75.93 76.20 76.58 76.09 76.22 76.31 77.02 77.66 78.30 78.49 78.45 77.41 77.76 78.47 78.45 77.65 77.30
59.81 61.78 65.30 63.74 65.38 69.31 71.86 72.38 73.21 73.57 74.02 74.11 75.06 75.99 75.84 75.78 76.22 76.38 75.67 75.74 75.98 76.35 76.60 77.05 77.97 78.57 78.51 78.10 77.44 78.33 78.27 76.95 76.27
58.13 58.72 60.38 60.47 63.43 64.03 65.40 67.87 70.65 72.84 73.68 73.85 74.52 75.08 74.37 74.96 74.96 75.53 74.74 75.38 76.10 76.35 76.36 76.78 76.85 77.50 77.87 77.90 77.31 77.86 78.90 78.12 77.55
59.17 57.89 58.28 59.34 59.30 60.06 60.45 64.73 67.80 68.19 71.05 73.50 74.18 74.49 74.43 74.02 73.95 73.75 74.20 74.63 75.91 76.07 76.52 76.30 76.16 76.67 77.15 77.53 77.75 77.13 77.82 78.32 78.10
60.16 60.25 58.99 57.97 58.24 59.38 60.61 61.16 61.51 65.08 68.35 70.45 72.57 73.11 73.87 74.42 75.37 75.29 74.42 75.10 74.80 75.69 76.22 76.46 76.44 76.06 76.17 76.64 76.86 76.70 77.02 77.43 78.01
57.55 58.53 59.28 60.54 60.36 59.62 59.64 59.78 59.94 60.99 63.41 65.16 69.38 72.10 72.95 74.33 75.15 75.49 75.61 75.80 75.37 75.08 75.95 76.40 76.62 76.19 75.87 75.31 74.33 68.65 67.31 74.14 78.05
55.97 56.98 58.21 58.81 60.07 60.67 61.46 62.17 61.59 60.31 61.48 62.81 63.93 65.67 71.95 72.65 74.11 74.22 74.83 75.42 75.67 75.63 75.18 75.59 76.65 76.06 76.17 76.40 76.53 65.73 64.59 68.19 75.89
53.42 53.93 55.00 57.11 58.48 59.45 60.88 61.96 62.71 63.28 61.92 60.77 60.34 60.53 61.69 64.67 69.85 72.01 74.52 74.89 75.09 75.49 75.59 75.49 75.54 75.74 76.54 76.55 76.56 65.00 63.86 65.76 75.29
53.24 53.73 54.51 55.18 56.22 57.10 59.41 60.30 61.52 62.49 62.78 61.80 60.74 59.36 59.33 60.34 62.29 65.89 69.28 72.94 74.49 75.38 74.61 75.37 75.34 75.61 75.98 76.44 76.32 63.51 62.74 66.36 74.57
52.96 53.79 54.29 54.47 55.22 56.26 57.11 58.22 59.24 60.23 61.31 61.68 61.00 60.01 60.93 60.48 61.62 63.47 64.23 69.16 72.95 75.35 77.22 75.02 74.85 75.11 76.09 72.16 76.21 65.80 60.60 64.84 73.87
53.05 53.22 53.63 54.07 54.86 55.15 56.54 57.64 57.69 57.97 59.66 59.89 61.24 61.71 62.00 62.07 61.15 61.45 62.84 64.12 68.47 72.90 75.43 76.06 76.22 75.80 76.02 76.81 75.07 75.19 60.06 58.80 74.06
52.03 52.18 53.02 53.69 53.58 54.13 55.85 56.84 56.96 56.74 57.89 60.44 61.27 61.75 61.55 61.45 62.14 62.92 62.74 64.03 65.51 67.29 71.16 73.00 74.01 74.66 75.40 76.20 77.07 67.00 63.82 57.96 59.36
51.15 51.93 52.31 52.65 52.99 53.54 54.69 55.97 56.63 55.81 57.56 58.91 60.17 60.66 60.89 61.39 60.70 61.12 62.65 62.94 64.58 65.25 68.27 70.02 71.54 69.83 70.61 74.13 75.73 76.08 61.62 58.80 57.36
50.55 51.34 51.39 51.72 52.07 52.34 53.07 54.92 55.41 55.93 56.96 57.94 58.78 59.23 59.82 60.29 60.31 56.92 60.37 62.23 63.21 64.04 66.63 67.37 68.95 70.18 69.78 72.67 75.89 75.41 76.80 75.49 70.10
49.46 49.36 50.28 50.22 49.95 51.01 52.07 54.29 55.03 55.54 56.17 56.83 56.43 58.07 58.47 58.53 59.16 60.30 56.75 59.55 61.45 62.13 63.97 63.41 64.14 68.02 69.80 70.15 71.05 74.47 63.89 64.58 75.24
48.56 48.48 48.37 48.78 47.47 48.81 50.94 51.75 53.27 55.90 56.68 56.32 54.59 56.21 56.79 56.86 57.05 57.91 58.59 56.41 58.89 54.73 51.91 50.18 48.77 48.12 54.13 65.03 58.62 55.01 54.47 53.92 53.02
47.90 47.93 48.31 47.00 46.70 48.73 49.59 50.82 50.98 54.24 55.28 56.19 54.57 53.69 56.50 56.20 54.75 56.69 57.43 57.93 58.53 58.11 57.96 52.28 50.05 47.58 47.94 47.94 50.80 50.30 49.39 47.22 47.40
MSLP
1009.96 1009.12 1009.63 1010.60 1010.87 1011.16 1012.07 1012.96 1013.88 1014.75 1015.53 1016.48 1017.12 1017.56 1018.06 1018.55 1019.02 1019.05 1019.31 1019.28 1018.95 1019.34 1018.96 1019.24 1019.63 1020.52 1020.70 1020.86 1021.02 1021.37 1021.56 1021.57 1021.55
1011.16 1010.48 1009.40 1009.68 1010.71 1011.03 1011.66 1012.46 1013.34 1014.21 1014.98 1015.80 1016.44 1016.79 1017.50 1018.04 1018.51 1018.80 1018.68 1019.01 1019.26 1019.15 1019.14 1018.75 1019.44 1019.92 1020.40 1020.59 1020.88 1021.11 1021.03 1021.02 1021.26
1012.78 1010.86 1010.67 1010.38 1010.01 1010.58 1011.49 1012.13 1012.84 1013.78 1014.36 1014.98 1015.62 1016.11 1016.67 1017.18 1017.74 1018.31 1018.61 1019.00 1019.23 1019.17 1018.90 1019.12 1018.94 1019.62 1019.88 1020.19 1020.54 1020.76 1020.88 1020.82 1021.06
1014.44 1013.47 1012.16 1011.71 1011.10 1011.43 1011.64 1011.97 1012.56 1013.25 1013.92 1014.45 1015.02 1015.48 1016.00 1016.53 1016.99 1017.53 1018.12 1018.35 1018.80 1019.05 1019.09 1019.06 1019.41 1019.48 1019.69 1019.91 1020.10 1020.36 1020.78 1020.84 1020.65
1015.80 1015.33 1014.52 1014.37 1013.78 1013.14 1012.76 1013.06 1012.66 1012.93 1013.42 1013.78 1014.23 1014.83 1015.55 1015.93 1016.46 1016.98 1017.38 1017.76 1018.01 1018.56 1018.73 1018.71 1018.97 1019.33 1019.45 1019.69 1019.87 1020.00 1020.27 1020.49 1020.33
1016.49 1016.50 1016.35 1016.34 1015.82 1015.62 1015.16 1014.54 1013.96 1013.28 1013.32 1013.36 1013.41 1014.38 1015.20 1015.73 1015.95 1016.39 1017.03 1017.10 1017.50 1017.87 1018.20 1018.36 1018.36 1018.68 1018.94 1019.44 1019.57 1019.80 1020.12 1020.02 1020.10
1016.79 1017.19 1017.36 1017.29 1017.30 1017.34 1017.06 1016.60 1016.09 1015.68 1014.80 1013.95 1013.53 1013.54 1014.36 1015.28 1015.92 1016.08 1016.38 1016.87 1016.97 1017.29 1017.62 1017.90 1018.02 1018.20 1018.44 1018.76 1019.08 1019.26 1019.46 1019.62 1019.66
1016.90 1017.02 1017.38 1017.78 1017.92 1018.02 1018.01 1018.03 1017.95 1017.63 1017.08 1016.29 1015.50 1014.62 1014.43 1014.40 1015.04 1015.69 1016.18 1016.48 1016.67 1016.60 1016.87 1017.16 1017.47 1017.67 1017.90 1018.21 1018.44 1018.50 1018.93 1019.02 1019.00
1017.64 1017.85 1018.03 1018.03 1018.02 1018.17 1018.17 1018.32 1018.53 1018.42 1018.06 1017.78 1017.19 1016.20 1015.46 1014.76 1014.90 1015.02 1015.27 1015.60 1016.05 1016.39 1016.32 1016.48 1016.78 1016.97 1017.13 1017.36 1017.56 1017.63 1018.14 1018.44 1018.74
1018.39 1018.58 1018.75 1018.72 1018.55 1018.56 1018.54 1018.31 1018.43 1018.44 1018.59 1018.46 1017.94 1017.24 1016.14 1015.69 1015.42 1015.27 1015.10 1015.10 1015.33 1015.54 1015.84 1015.93 1016.00 1016.18 1016.37 1016.50 1016.71 1017.03 1017.52 1017.90 1018.08
1019.26 1019.41 1019.34 1019.26 1019.08 1019.02 1019.00 1018.83 1018.72 1018.64 1018.34 1018.55 1018.42 1018.16 1017.63 1017.26 1016.62 1015.87 1015.08 1015.00 1015.00 1015.02 1015.15 1015.22 1015.32 1015.38 1015.58 1015.71 1015.87 1016.29 1016.72 1017.17 1017.52
1020.14 1020.18 1020.03 1019.91 1019.78 1019.65 1019.40 1019.20 1018.97 1018.70 1018.43 1018.33 1018.41 1018.58 1018.48 1018.44 1017.96 1017.04 1016.11 1015.26 1014.70 1014.67 1014.83 1014.76 1014.61 1014.62 1014.84 1014.96 1015.08 1015.37 1015.87 1016.46 1016.70
1020.54 1020.69 1020.68 1020.54 1020.37 1019.96 1019.58 1019.57 1019.27 1018.90 1018.46 1018.38 1018.39 1018.40 1018.41 1018.68 1018.57 1017.83 1016.90 1016.05 1015.10 1014.72 1014.42 1014.12 1014.10 1013.83 1013.93 1014.16 1014.35 1014.70 1015.05 1015.63 1015.67
1020.74 1020.86 1020.89 1021.02 1020.73 1020.36 1020.02 1019.80 1019.62 1019.20 1018.73 1018.40 1018.54 1018.57 1018.29 1017.98 1018.11 1017.92 1017.39 1016.73 1015.71 1014.84 1014.42 1014.14 1013.80 1013.32 1013.26 1013.29 1013.42 1013.85 1014.26 1014.56 1014.81
1020.77 1020.79 1020.81 1020.84 1020.60 1020.47 1020.37 1020.18 1019.84 1019.48 1019.09 1018.73 1018.58 1018.39 1018.26 1018.12 1017.78 1017.32 1017.01 1016.61 1015.98 1015.64 1014.72 1013.98 1013.54 1013.31 1012.95 1012.37 1012.60 1012.91 1013.41 1013.65 1013.95
1020.84 1020.78 1020.84 1021.01 1020.78 1020.56 1020.46 1020.34 1020.17 1019.77 1019.36 1019.19 1018.63 1018.15 1017.73 1017.55 1017.72 1017.33 1016.67 1016.30 1015.99 1015.69 1014.98 1014.20 1013.44 1013.30 1012.79 1012.14 1011.61 1012.05 1012.06 1012.42 1012.72
1021.09 1021.12 1021.19 1021.27 1021.04 1020.66 1020.37 1020.25 1020.16 1019.92 1019.60 1019.26 1018.62 1018.14 1017.62 1017.10 1016.88 1017.04 1016.56 1015.76 1015.04 1014.97 1014.82 1014.49 1013.68 1012.59 1012.46 1012.06 1011.88 1011.35 1011.17 1011.04 1011.79
1021.52 1021.79 1021.83 1022.02 1021.81 1021.30 1020.94 1020.46 1019.80 1019.54 1019.44 1019.17 1018.47 1017.93 1017.38 1016.86 1016.29 1015.93 1016.11 1015.78 1014.97 1014.78 1014.69 1014.97 1014.82 1013.83 1012.86 1012.23 1011.57 1011.12 1011.46 1011.28 1010.46
1021.98 1021.94 1022.07 1022.12 1022.36 1021.84 1021.26 1020.68 1019.97 1019.26 1018.86 1018.66 1018.32 1017.89 1017.20 1016.54 1016.32 1015.81 1015.34 1015.10 1014.55 1014.46 1014.50 1014.53 1014.44 1014.20 1014.26 1013.16 1012.82 1012.58 1012.48 1011.94 1011.41
1022.15 1022.10 1022.25 1022.33 1022.32 1021.91 1021.34 1020.98 1020.44 1019.70 1019.04 1018.32 1017.89 1017.73 1017.40 1016.77 1016.34 1015.60 1015.14 1014.77 1014.28 1013.53 1013.38 1013.58 1013.56 1013.18 1013.04 1012.72 1012.16 1012.08 1011.95 1011.36 1011.10
Wind_Speed
8 13 19 21 15 19 20 18 17 16 16 16 17 16 16 13 12 9 10 10 8 7 6 6 5 7 7 7 7 7 6 6 7
10 1 9 16 24 18 18 19 18 17 16 15 16 17 14 14 13 13 10 10 8 8 7 5 7 8 8 8 7 7 7 7 6
16 11 5 8 15 17 15 17 18 18 17 16 16 17 15 14 15 14 13 10 11 11 8 9 7 9 9 9 9 8 7 6 6
15 18 16 3 1 2 10 13 14 16 16 16 14 15 15 15 14 15 14 13 12 13 11 9 10 10 10 10 10 10 9 7 5
15 17 18 17 19 12 8 10 12 13 13 15 15 13 12 15 14 13 14 14 14 13 13 12 11 10 10 10 11 10 11 11 9
14 17 18 17 18 16 15 18 9 9 10 13 13 12 12 13 13 14 14 15 13 13 13 14 13 12 11 10 11 12 12 12 11
15 15 16 16 16 15 15 16 14 14 15 9 8 10 12 12 13 13 14 13 14 14 13 13 14 14 13 12 11 13 13 13 13
14 15 16 15 15 13 14 13 13 12 11 11 12 10 11 12 12 13 12 11 14 16 15 14 14 14 15 14 13 12 14 14 14
13 14 14 14 14 13 13 14 12 11 11 12 12 9 11 11 10 11 12 13 14 14 15 15 15 16 16 16 13 13 11 13 12
11 12 12 12 13 13 13 13 13 12 9 10 11 14 8 8 10 10 10 12 13 14 15 16 15 16 16 16 16 12 12 15 16
11 12 12 12 12 12 12 13 13 13 11 8 10 11 13 14 14 12 12 11 11 13 13 14 14 16 16 16 15 13 15 16 17
9 11 10 11 12 13 11 12 12 11 12 11 7 9 10 11 12 13 12 9 12 12 10 12 14 14 16 16 17 13 17 14 17
9 9 10 11 13 12 12 12 13 12 10 11 12 13 9 9 9 11 12 12 11 10 12 14 12 14 16 16 17 13 15 16 14
8 9 10 11 11 11 11 12 14 14 12 11 11 12 13 12 7 9 11 10 10 11 11 12 12 14 13 15 16 17 15 18 16
10 11 11 11 10 10 11 11 12 13 13 13 12 11 11 12 13 10 6 10 9 12 12 12 11 11 12 13 14 16 13 17 21
11 12 11 12 11 13 12 12 11 13 14 14 14 13 13 11 12 12 11 10 10 8 9 10 10 6 7 12 11 10 17 18 21
10 10 12 12 14 13 14 13 13 14 14 15 14 14 13 12 11 8 12 10 9 7 7 8 10 10 8 9 10 12 12 11 12
12 12 11 12 13 14 16 17 16 15 15 14 15 14 13 12 11 10 6 11 10 10 11 7 9 12 11 11 10 11 12 13 13
11 12 12 11 11 14 16 15 17 17 15 14 14 14 12 9 10 11 10 7 11 9 12 12 15 16 14 11 14 18 22 25 20
8 10 11 12 12 14 14 14 14 14 14 15 13 12 13 10 9 10 11 11 11 13 10 10 14 16 19 19 17 19 23 21 15
Wind_Direction
351 207 192 193 223 201 199 201 195 200 197 207 206 207 211 211 217 218 220 215 233 199 220 193 161 190 211 204 198 196 188 197 235
4 255 246 197 192 207 207 200 201 204 205 205 211 210 210 208 208 221 227 250 216 230 233 225 191 194 200 208 208 210 177 221 204
9 22 203 240 202 193 201 207 205 209 208 206 211 212 209 210 209 213 218 231 237 252 250 233 201 207 196 204 202 213 210 189 190
28 23 32 172 165 162 208 209 209 210 214 215 211 210 214 218 213 213 215 219 229 235 237 238 233 217 210 213 212 205 209 238 209
42 36 37 33 25 12 188 211 238 207 218 217 216 218 213 219 222 219 217 219 218 227 230 230 224 226 220 216 220 221 213 215 214
54 50 47 42 33 34 26 17 355 253 223 231 223 204 219 227 225 222 226 225 221 219 224 227 228 225 230 224 221 221 226 223 223
77 62 52 47 45 38 30 20 15 8 354 313 257 234 208 218 229 229 225 230 230 223 222 227 229 229 234 233 223 230 228 227 227
61 57 57 50 43 40 33 32 22 10 356 354 334 293 251 233 222 223 232 227 227 229 225 223 227 229 231 234 236 228 219 228 225
55 49 43 39 39 38 36 31 26 13 3 355 337 299 283 273 254 240 235 227 232 235 237 227 228 227 228 227 233 229 208 229 223
44 37 35 27 26 23 19 18 21 22 16 358 357 353 310 290 277 266 257 242 241 234 234 237 227 232 231 231 228 217 203 205 234
30 21 11 9 9 8 9 8 10 5 15 20 10 6 359 355 344 332 266 247 244 243 239 238 235 234 234 234 233 212 204 202 230
15 0 353 353 351 348 346 355 355 359 359 4 23 6 357 344 339 328 320 295 255 245 240 242 239 237 238 235 238 206 203 196 231
357 350 348 341 339 331 338 345 339 340 351 350 359 353 350 344 330 325 331 315 293 277 250 236 240 244 239 238 245 220 202 200 232
341 337 331 333 323 323 329 332 333 326 332 342 346 341 338 338 332 324 321 318 310 299 272 257 251 249 246 251 244 240 206 199 225
324 325 330 330 318 317 319 321 319 318 319 330 326 327 328 333 332 323 308 311 315 305 297 273 263 267 260 248 241 233 225 201 212
320 319 327 328 322 317 312 312 311 305 308 314 313 315 318 321 325 325 321 313 307 293 287 280 267 252 267 264 263 262 220 201 206
338 335 332 330 324 319 312 308 301 295 297 301 302 301 304 309 311 313 315 315 305 292 297 282 288 262 246 254 255 249 259 227 210
349 342 331 339 330 332 333 324 302 292 287 286 288 288 292 298 297 303 302 300 304 303 296 295 307 306 310 302 284 284 326 317 299
351 340 324 322 323 323 320 314 305 297 286 277 276 280 281 290 305 295 300 295 297 268 254 280 276 266 260 278 262 277 284 286 274
334 342 331 315 309 302 310 314 320 331 313 294 273 260 274 279 271 282 296 295 297 301 289 257 285 271 264 259 257 269 274 271 277